Stations météo

réclame
Mon MeteoGroup
Angermünde, Allemagne (10291): Température de l'air & dewpoint: 17.07.2018 09:00:00 - 23.07.2018 09:00:00 (CEST)Angermünde, Allemagne (10291): Température de l'air 5cm & Température de l'air -5cm: 17.07.2018 09:00:00 - 23.07.2018 09:00:00 (CEST)Angermünde, Allemagne (10291): Température de l'air -20cm & Température de l'air -100cm: 17.07.2018 09:00:00 - 23.07.2018 09:00:00 (CEST)Angermünde, Allemagne (10291): Vitesse du vent & gusts: 17.07.2018 09:00:00 - 23.07.2018 09:00:00 (CEST)Angermünde, Allemagne (10291): Direction du vent: 17.07.2018 09:00:00 - 23.07.2018 09:00:00 (CEST)Angermünde, Allemagne (10291): reduced air pressure: 17.07.2018 09:00:00 - 23.07.2018 09:00:00 (CEST)Angermünde, Allemagne (10291): visibility: 17.07.2018 09:00:00 - 23.07.2018 09:00:00 (CEST)Angermünde, Allemagne (10291): Ensoleillement: 17.07.2018 09:00:00 - 23.07.2018 09:00:00 (CEST)Angermünde, Allemagne (10291): Quantités de précipitations: 17.07.2018 09:00:00 - 23.07.2018 09:00:00 (CEST)
Date & Time tt [°C] td [°C] tt 5cm [°C] tt -5cm [°C] tt -20cm [°C] tt -100cm [°C] ff [km/h] ff [knt] fx [km/h] fx [knt] dd ppp [hPa] vv [km] sd [min] rr [mm]
23.07.2018 09:00:00 20,8 16,7 23,9 21,2 21,1 19,2 14 7 20 11 NW 1015,1 22 60 0,0
23.07.2018 08:00:00 19,1 16,6 20,5 20,0 21,2 19,2 13 7 16 9 WNW 1015,0 22 60 0,0
23.07.2018 07:00:00 17,2 16,2 16,9 19,4 21,4 19,2 9 5 12 6 W 1014,9 9 27 0,0
23.07.2018 06:00:00 16,3 15,5 15,6 19,4 21,6 19,2 11 6 16 9 W 1014,9 8 0 0,0
23.07.2018 05:00:00 16,2 15,2 15,0 19,7 21,9 19,2 9 5 13 7 W 1014,4 10 0 0,0
23.07.2018 04:00:00 17,0 15,4 16,0 20,1 22,1 19,2 11 6 14 7 W 1014,1 13 0 0,0
23.07.2018 03:00:00 17,1 14,9 14,6 20,5 22,4 19,2 6 3 13 7 W 1014,3 17 0 0,0
23.07.2018 02:00:00 18,2 14,9 16,3 21,0 22,7 19,2 6 3 11 6 W 1014,0 18 0 0,0
23.07.2018 01:00:00 18,8 15,0 17,2 21,5 23,0 19,2 10 5 13 7 W 1014,0 19 0 0,0
23.07.2018 00:00:00 19,5 15,0 17,5 22,2 23,3 19,2 9 5 16 8 W 1014,1 19 0 0,0
22.07.2018 23:00:00 19,9 15,6 17,7 23,0 23,6 19,1 9 5 14 8 W 1014,0 15 0 0,0
22.07.2018 22:00:00 21,2 15,4 18,1 24,1 23,8 19,1 4 2 8 4 SSW 1013,3 23 0 0,0
22.07.2018 21:00:00 23,3 16,0 21,9 25,3 24,0 19,1 6 3 9 5 WSW 1012,8 26 24 0,0
22.07.2018 20:00:00 24,9 13,4 24,1 26,4 24,0 19,1 7 4 10 5 SW 1012,5 31 51 0,0
22.07.2018 19:00:00 25,6 14,4 27,2 27,0 24,0 19,1 7 4 11 6 SW 1012,3 28 36 0,0
22.07.2018 18:00:00 25,5 13,8 26,8 28,1 23,8 19,1 5 3 12 7 SSW 1012,6 33 25 0,0
22.07.2018 17:00:00 26,3 11,5 29,6 28,8 23,4 19,1 5 3 13 7 WSW 1012,4 36 60 0,0
22.07.2018 16:00:00 26,4 12,6 32,1 28,0 23,1 19,1 6 4 13 7 SW 1012,6 34 36 0,0
22.07.2018 15:00:00 25,8 11,8 30,4 27,7 22,7 19,1 7 4 12 7 SW 1013,1 38 14 0,0
22.07.2018 14:00:00 25,1 12,0 29,0 27,0 22,3 19,1 8 4 16 9 W 1013,3 40 21 0,0
22.07.2018 13:00:00 24,7 11,7 29,4 25,7 21,9 19,1 5 3 11 6 WSW 1013,3 41 5 0,0
22.07.2018 12:00:00 24,1 11,7 27,2 25,7 21,4 19,1 5 3 10 6 SSW 1013,3 37 4 0,0
22.07.2018 11:00:00 24,6 9,2 30,3 25,1 20,9 19,1 4 2 11 6 E 1013,2 33 60 0,0
22.07.2018 10:00:00 23,9 10,2 28,2 22,8 20,5 19,1 3 1 8 5 S 1013,2 32 58 0,0
22.07.2018 09:00:00 21,6 12,9 24,7 20,8 20,4 19,1 4 2 9 5 W 1013,3 29 54 0,0
22.07.2018 08:00:00 18,4 13,6 19,5 19,2 20,4 19,1 4 2 11 6 WSW 1013,1 21 6 0,0
22.07.2018 07:00:00 15,6 13,9 15,6 18,5 20,6 19,1 6 3 8 5 W 1012,9 16 0 0,0
22.07.2018 06:00:00 14,4 13,7 13,8 18,4 20,8 19,0 4 2 7 4 WSW 1012,8 10 0 0,0
22.07.2018 05:00:00 14,5 13,8 13,8 18,6 21,1 19,0 5 3 5 3 WNW 1012,5 10 0 0,0
22.07.2018 04:00:00 14,3 13,7 11,8 18,9 21,4 19,0 3 2 7 4 WSW 1012,5 7 0 0,0
22.07.2018 03:00:00 14,8 13,1 13,2 19,5 21,6 19,0 6 3 6 4 WNW 1012,4 16 0 0,0
22.07.2018 02:00:00 15,9 13,8 14,7 19,9 22,0 19,0 0 0 4 2 N 1012,6 18 0 0,0
22.07.2018 01:00:00 15,5 13,8 13,2 20,3 22,3 19,0 4 2 6 3 W 1012,9 19 0 0,0
22.07.2018 00:00:00 16,2 13,6 14,5 21,0 22,6 19,0 3 2 4 2 WNW 1012,6 21 0 0,0
21.07.2018 23:00:00 17,4 12,4 14,2 21,7 23,0 19,0 3 2 5 3 N 1012,4 19 0 0,0
21.07.2018 22:00:00 19,0 12,6 15,3 22,8 23,3 19,0 4 2 8 4 ENE 1012,3 19 0 0,0
21.07.2018 21:00:00 20,4 13,1 17,9 24,2 23,6 19,0 7 4 12 6 E 1011,9 38 19 0,0
21.07.2018 20:00:00 22,4 13,4 21,6 25,3 23,7 19,0 6 3 10 6 E 1011,8 21 0 0,0
21.07.2018 19:00:00 24,0 11,8 23,2 26,9 23,7 19,0 5 3 13 7 NE 1012,0 40 8 0,0
21.07.2018 18:00:00 26,0 11,7 30,2 28,1 23,5 19,0 8 4 27 14 NNE 1012,1 48 59 0,0
21.07.2018 17:00:00 25,3 10,4 28,8 28,8 23,2 19,0 10 5 19 11 NNW 1012,2 41 60 0,0
21.07.2018 16:00:00 25,3 10,9 30,1 28,6 22,7 19,0 8 5 21 11 NE 1012,2 34 40 0,0
21.07.2018 15:00:00 25,0 10,2 31,9 28,5 22,2 19,0 5 3 23 12 NNE 1012,6 47 58 0,0
21.07.2018 14:00:00 25,4 11,1 32,3 28,1 21,5 19,0 6 4 22 12 N 1012,8 37 59 0,0
21.07.2018 13:00:00 24,6 10,5 30,5 26,8 20,8 19,0 10 5 22 12 NNE 1013,0 48 59 0,0
21.07.2018 12:00:00 24,0 11,5 30,6 25,2 20,1 19,0 9 5 20 11 N 1013,1 55 60 0,0
21.07.2018 11:00:00 22,7 10,1 27,4 22,9 19,6 19,0 8 5 25 13 N 1013,4 29 60 0,0
21.07.2018 10:00:00 22,0 11,6 25,1 21,3 19,2 19,0 8 4 14 8 NNE 1013,4 46 60 0,0
21.07.2018 09:00:00 19,6 11,9 21,5 18,9 19,0 19,0 7 4 11 6 N 1013,5 39 60 0,0
21.07.2018 08:00:00 17,3 13,5 16,0 16,8 19,0 19,0 5 3 8 4 NW 1013,3 36 60 0,0
21.07.2018 07:00:00 13,9 12,8 13,3 15,7 19,3 19,0 2 1 5 3 W 1013,3 30 51 0,0
21.07.2018 06:00:00 12,2 12,1 11,2 15,4 19,7 19,0 4 2 5 3 WSW 1013,5 11 0 0,0
21.07.2018 05:00:00 12,0 12,0 10,2 15,7 20,1 19,0 5 3 8 4 W 1013,4 8 0 0,0
21.07.2018 04:00:00 12,0 11,8 10,5 16,2 20,5 19,0 5 3 9 5 W 1013,4 22 0 0,0
21.07.2018 03:00:00 12,4 12,1 10,7 16,8 21,0 19,0 7 4 9 5 W 1013,5 25 0 0,0
21.07.2018 02:00:00 13,0 11,7 10,6 17,6 21,5 19,0 4 2 7 4 WNW 1013,3 42 0 0,0
21.07.2018 01:00:00 13,7 11,2 11,7 18,5 22,0 19,0 4 2 5 3 WNW 1013,7 57 0 0,0
21.07.2018 00:00:00 14,7 11,7 12,8 19,5 22,6 19,0 3 1 5 3 W 1013,7 65 0 0,0
20.07.2018 23:00:00 15,8 10,9 13,7 20,7 23,2 19,0 0 0 14 7 N 1013,8 51 0 0,0
20.07.2018 22:00:00 18,3 8,3 15,9 22,1 23,7 19,0 9 5 13 7 NNW 1013,3 26 0 0,0
20.07.2018 21:00:00 20,5 7,4 18,4 24,1 24,1 19,0 9 5 21 11 NNW 1013,1 70 4 0,0
20.07.2018 20:00:00 23,1 8,5 22,6 26,4 24,3 19,0 14 8 31 17 NW 1013,0 57 60 0,0
20.07.2018 19:00:00 24,6 8,3 25,9 28,3 24,2 19,0 22 12 32 17 NW 1012,8 38 60 0,0
20.07.2018 18:00:00 25,3 10,2 27,7 29,6 23,9 19,0 23 12 34 19 NW 1012,8 27 60 0,0
20.07.2018 17:00:00 25,5 11,2 27,3 30,2 23,4 19,0 23 12 36 19 WNW 1013,0 15 55 0,0
20.07.2018 16:00:00 25,7 12,0 28,8 30,6 22,8 19,0 26 14 40 21 WNW 1013,7 9 60 0,0
20.07.2018 15:00:00 25,2 12,0 28,6 30,0 22,1 19,0 26 14 40 22 W 1014,0 18 52 0,0
20.07.2018 14:00:00 24,5 11,1 27,9 29,5 21,2 19,0 26 14 34 19 NW 1014,0 24 56 0,0
20.07.2018 13:00:00 23,8 11,3 27,8 28,1 20,2 19,0 14 8 27 15 W 1014,7 27 60 0,0
20.07.2018 12:00:00 23,4 10,6 27,2 25,7 19,4 19,0 15 8 26 14 NW 1015,0 43 60 0,0
20.07.2018 11:00:00 22,3 11,8 25,0 23,1 18,8 19,0 13 7 26 14 NW 1015,3 51 60 0,0
20.07.2018 10:00:00 21,2 11,3 23,4 20,4 18,3 19,0 17 9 26 14 WNW 1015,5 23 60 0,0
20.07.2018 09:00:00 19,7 13,0 21,2 18,4 18,1 19,0 14 8 18 10 W 1015,5 31 60 0,0
20.07.2018 08:00:00 17,5 13,5 18,4 16,1 18,1 19,0 10 6 15 8 WNW 1015,5 48 60 0,0
20.07.2018 07:00:00 15,0 12,4 14,0 14,6 18,3 19,0 10 5 13 7 W 1015,7 17 59 0,0
20.07.2018 06:00:00 13,0 10,6 11,6 14,5 18,6 19,0 9 5 11 6 W 1015,8 27 0 0,0
20.07.2018 05:00:00 13,0 10,7 11,1 14,8 19,0 19,0 8 4 12 7 W 1016,0 25 0 0,0
20.07.2018 04:00:00 13,7 10,9 11,1 15,4 19,4 19,0 9 5 11 6 W 1015,8 34 0 0,0
20.07.2018 03:00:00 14,0 11,5 11,8 16,0 19,7 19,0 7 4 10 6 W 1016,0 30 0 0,0
20.07.2018 02:00:00 14,0 12,2 11,8 16,6 20,1 19,0 8 4 9 5 W 1016,4 28 0 0,0
20.07.2018 01:00:00 14,5 11,6 12,0 17,3 20,5 19,0 6 3 7 4 W 1016,6 35 0 0,0
20.07.2018 00:00:00 15,7 12,9 12,7 18,1 20,9 19,0 6 3 10 5 WNW 1016,6 27 0 0,0
19.07.2018 23:00:00 17,2 11,3 14,5 19,0 21,3 19,0 9 5 13 7 WNW 1016,6 47 0 0,0
19.07.2018 22:00:00 18,3 10,7 15,3 20,3 21,7 19,0 10 6 20 11 NW 1016,6 60 0 0,0
19.07.2018 21:00:00 20,8 9,6 19,2 22,0 21,9 19,0 16 8 29 16 NW 1016,3 67 39 0,0
19.07.2018 20:00:00 23,2 12,1 23,3 23,7 21,8 19,0 20 11 28 15 NW 1015,8 55 60 0,0
19.07.2018 19:00:00 24,1 11,4 25,0 24,6 21,6 19,0 19 10 32 17 NNW 1015,6 52 56 0,0
19.07.2018 18:00:00 23,8 11,7 24,5 24,9 21,3 19,0 23 12 34 18 NW 1015,7 40 9 0,0
19.07.2018 17:00:00 23,8 11,4 26,1 26,2 20,7 19,0 14 8 37 20 N 1016,0 55 53 0,0
19.07.2018 16:00:00 23,7 12,6 25,8 23,3 20,4 19,0 26 14 36 20 WNW 1016,1 24 4 0,0
19.07.2018 15:00:00 22,3 13,0 23,6 22,4 20,1 19,0 22 12 35 19 NW 1016,3 29 0 0,0
19.07.2018 14:00:00 21,8 15,0 22,6 22,2 19,9 19,0 23 13 38 21 NW 1016,1 27 0 0,0
19.07.2018 13:00:00 20,7 15,6 21,9 20,9 19,6 19,0 26 14 41 22 NW 1016,4 34 0 0,0
19.07.2018 12:00:00 19,5 16,2 20,1 20,1 19,5 19,0 23 12 36 19 NW 1016,4 30 0 0,0
19.07.2018 11:00:00 18,7 17,0 19,0 19,3 19,5 19,0 18 10 34 18 NW 1016,0 14 0 0,0
19.07.2018 10:00:00 18,4 17,1 18,3 19,0 19,4 19,0 22 12 35 19 NW 1015,8 12 0 0,0
19.07.2018 09:00:00 18,5 17,7 18,4 18,8 19,4 19,0 19 10 28 15 NW 1015,4 14 0 0,0
19.07.2018 08:00:00 18,0 17,4 17,7 18,3 19,4 19,0 19 10 29 16 NW 1015,3 6 0 0,0
19.07.2018 07:00:00 18,0 17,1 17,5 18,1 19,4 19,0 20 11 29 16 NW 1015,0 13 0 0,1
19.07.2018 06:00:00 18,3 16,7 18,1 17,8 19,5 19,0 19 11 32 17 NW 1014,7 20 0 0,0
19.07.2018 05:00:00 18,3 15,9 17,9 17,3 19,7 19,0 23 12 32 18 NW 1014,5 29 0 0,0
19.07.2018 04:00:00 17,9 15,1 17,0 17,3 19,9 19,0 22 12 32 17 WNW 1014,4 36 0 0,0
19.07.2018 03:00:00 18,0 14,4 17,0 17,5 20,2 19,0 19 11 30 16 WNW 1014,6 38 0 0,0
19.07.2018 02:00:00 18,7 13,8 17,6 17,8 20,5 19,0 22 12 34 18 WNW 1014,6 42 0 0,0
19.07.2018 01:00:00 19,2 13,8 18,1 18,3 20,8 19,0 22 12 32 17 WNW 1014,6 32 0 0,0
19.07.2018 00:00:00 19,1 15,0 18,0 18,9 21,1 19,0 16 8 23 12 WNW 1014,8 24 0 0,0
18.07.2018 23:00:00 19,6 15,7 18,0 19,5 21,4 19,0 16 8 21 12 NW 1014,6 22 0 0,0
18.07.2018 22:00:00 20,2 15,9 18,5 20,4 21,7 19,0 12 7 21 11 NW 1014,7 26 0 0,0
18.07.2018 21:00:00 22,5 15,6 21,2 21,4 21,9 19,0 14 8 27 14 NNW 1014,4 26 23 0,0
18.07.2018 20:00:00 23,2 16,1 22,6 22,1 22,0 19,0 19 10 30 16 NNW 1014,0 30 6 0,0
18.07.2018 19:00:00 23,8 15,5 23,6 23,2 22,0 19,0 19 10 30 16 NNW 1013,7 32 34 0,0
18.07.2018 18:00:00 24,6 15,6 25,0 24,1 21,9 19,0 20 11 39 21 NNW 1013,6 35 55 0,0
18.07.2018 17:00:00 25,4 16,1 26,7 24,4 21,7 19,0 22 12 37 20 NW 1013,5 19 50 0,0
18.07.2018 16:00:00 24,9 15,3 26,5 25,1 21,4 19,0 28 15 40 22 NW 1013,4 18 60 0,0
18.07.2018 15:00:00 24,7 16,1 26,7 24,3 21,0 19,0 22 12 34 19 NNW 1013,5 23 11 0,0
18.07.2018 14:00:00 22,9 16,0 24,1 23,5 20,7 19,0 18 10 37 20 NNW 1013,5 31 15 0,0
18.07.2018 13:00:00 22,9 16,7 24,8 22,4 20,4 19,0 27 15 38 21 NW 1013,7 17 9 0,0
18.07.2018 12:00:00 21,6 17,6 21,3 21,6 20,2 19,0 26 14 32 18 WNW 1013,6 10 3 0,0
18.07.2018 11:00:00 19,7 17,7 19,4 20,4 20,1 19,0 18 10 28 15 NW 1013,7 13 0 0,0
18.07.2018 10:00:00 19,4 17,3 19,2 20,3 20,1 18,9 17 9 30 16 NW 1013,6 21 0 0,0
18.07.2018 09:00:00 18,6 17,6 18,4 19,5 20,1 18,9 17 9 26 14 NW 1013,2 14 0 0,4
18.07.2018 08:00:00 18,3 17,7 17,9 19,1 20,1 18,9 16 9 24 13 NW 1012,8 11 0 0,0
18.07.2018 07:00:00 18,1 17,5 17,7 18,9 20,2 18,9 15 8 22 12 NW 1012,2 10 0 0,6
18.07.2018 06:00:00 18,1 17,4 17,6 18,9 20,3 18,9 12 6 24 13 NW 1012,0 9 0 0,4
18.07.2018 05:00:00 18,1 17,4 17,6 19,0 20,5 18,9 13 7 19 11 NW 1011,7 10 0 0,2
18.07.2018 04:00:00 18,3 17,3 17,6 19,1 20,6 18,9 13 7 24 13 NW 1011,6 9 0 0,2
18.07.2018 03:00:00 18,4 17,2 17,6 19,3 20,8 18,9 13 7 23 12 WNW 1011,3 10 0 0,4
18.07.2018 02:00:00 19,2 16,6 18,9 19,4 20,9 18,9 14 8 19 11 NW 1011,4 23 0 0,0
18.07.2018 01:00:00 19,4 16,8 18,9 19,7 21,1 18,9 13 7 20 11 NW 1011,5 23 0 0,0
18.07.2018 00:00:00 19,2 17,2 18,8 19,9 21,4 18,9 11 6 15 8 NW 1011,5 25 0 0,0
17.07.2018 23:00:00 19,2 17,5 18,7 20,2 21,6 18,9 11 6 15 8 NW 1011,5 20 0 0,0
17.07.2018 22:00:00 19,7 17,2 19,0 20,7 21,8 18,9 10 5 14 8 NW 1011,5 24 0 0,0
17.07.2018 21:00:00 20,4 17,2 19,7 21,4 22,0 18,9 8 4 21 11 N 1011,3 33 0 0,0
17.07.2018 20:00:00 20,9 17,0 19,5 22,0 22,2 18,9 12 7 19 10 NNW 1011,5 35 0 0,0
17.07.2018 19:00:00 21,9 16,5 21,7 22,7 22,4 18,9 8 4 24 13 N 1011,5 34 0 0,0
17.07.2018 18:00:00 22,1 16,9 22,1 23,5 22,5 18,9 13 7 27 15 N 1011,6 30 0 0,0
17.07.2018 17:00:00 22,6 17,9 23,1 24,7 22,4 18,9 14 8 27 14 NNE 1011,6 20 0 0,0
17.07.2018 16:00:00 23,7 17,3 25,1 26,1 22,1 18,9 17 9 30 16 NNE 1011,4 29 0 0,0
17.07.2018 15:00:00 24,7 15,7 26,6 26,1 21,7 18,8 18 10 34 18 NNW 1011,4 32 2 0,0
17.07.2018 14:00:00 24,8 16,7 27,8 25,2 21,4 18,8 15 8 29 16 N 1011,5 29 6 0,0
17.07.2018 13:00:00 23,2 16,1 24,8 24,0 21,1 18,8 16 9 28 15 NW 1011,8 20 0 0,0
17.07.2018 12:00:00 23,1 15,9 24,3 23,3 20,8 18,8 11 6 21 11 NNW 1011,7 36 0 0,0
17.07.2018 11:00:00 22,6 15,9 24,4 23,0 20,4 18,8 12 6 28 15 N 1011,7 39 14 0,0
17.07.2018 10:00:00 23,1 15,2 26,0 22,3 20,1 18,8 15 8 23 13 N 1011,6 37 43 0,0
17.07.2018 09:00:00 20,5 15,6 20,7 19,7 20,1 18,8 11 6 16 9 NW 1011,9 32 1 0,0

tt = Température de l'air
td = dewpoint
tt 5cm = Température de l'air 5cm
tt -5cm = Température de l'air -5cm
tt -20cm = Température de l'air -20cm
tt -100cm = Température de l'air -100cm
ff = Vitesse du vent
fx = gusts
dd = Direction du vent
ppp = reduced air pressure
vv = visibility
sd = Ensoleillement
rr = Quantités de précipitations

stations d'obs. à proximité